Home   Weather   38°00'S, 145°13'E   Past weeks
Flag for Australia

Past Weather in 38°00'S, 145°13'E, Australia — Yesterday and Last 2 Weeks

Now
68 °F

Sunny.


Feels Like: 68 °F
Forecast: 63 / 51 °F
Wind: 15 mph from South

Location: Melbourne Airport

Current Time: Oct 14, 2019 at 5:32:34 pm

Latest Report: Oct 14, 2019 at 5:00 pm


Visibility: 10 mi

Pressure: 29.86 "Hg

Humidity: 53%

Dew Point: 50 °F

Location of 38°00'S, 145°13'ELocation

Past Weather in 38°00'S, 145°13'E — Graph

°F

38°00'S, 145°13'E Temperature Yesterday

Maximum temperature yesterday: 72 °F (at 4:00 pm)
Minimum temperature yesterday: 43 °F (at 4:00 am)
Average temperature yesterday: 59 °F

High & Low Weather Summary for the Past Weeks

 TemperatureHumidityPressure
High84 °F (Oct 3, 1:11 pm)100% (Oct 5, 3:00 am)30.42 "Hg (Oct 5, 3:00 am)
Low34 °F (Oct 1, 4:30 am)17% (Oct 2, 2:00 pm)29.59 "Hg (Oct 6, 8:12 am)
Average56 °F67%30.11 "Hg
* Reported Sep 29 3:00 pm — Oct 14 4:00 pm, 38°00'S, 145°13'E. Weather by CustomWeather, © 2019

Note: Actual official high and low records may vary slightly from our data, if they occured in-between our weather recording intervals... More about our weather records

Advertising

38°00'S, 145°13'E Weather History for the Previous 24 Hours

Scroll right to see more
 ConditionsComfort  
Time TempWeatherWind HumidityBarometerVisibility
4:00 pm
Mon, Oct 14
77 °FSunny.15 mph26%29.83 "Hg10 mi
3:30 pm77 °FSunny.17 mph30%29.83 "Hg10 mi
3:00 pm75 °FSunny.17 mph31%29.83 "Hg10 mi
2:30 pm75 °FSunny.17 mph31%29.86 "Hg10 mi
2:02 pm77 °FSunny.17 mph34%29.86 "Hg10 mi
2:00 pm75 °FSunny.16 mph34%29.86 "Hg10 mi
1:30 pm75 °FSunny.16 mph34%29.86 "Hg10 mi
1:00 pm73 °FSunny.20 mph33%29.89 "Hg10 mi
12:44 pm75 °FSunny.17 mph34%29.89 "Hg10 mi
12:00 pm72 °FSunny.17 mph38%29.92 "Hg10 mi
11:00 am64 °FSunny.15 mph46%29.92 "Hg10 mi
10:30 am64 °FSunny.21 mph49%29.92 "Hg10 mi
10:00 am64 °FSunny.15 mph46%29.92 "Hg10 mi
9:30 am63 °FSunny.18 mph49%29.92 "Hg10 mi
9:00 am63 °FSunny.16 mph52%29.92 "Hg10 mi
8:30 am61 °FSunny.13 mph52%29.92 "Hg10 mi
8:00 am59 °FSunny.13 mph59%29.92 "Hg10 mi
7:30 am57 °FSunny.10 mph67%29.92 "Hg10 mi
7:00 am55 °FBroken clouds.7 mph72%29.92 "HgN/A
6:30 am55 °FScattered showers. Passing clouds.5 mph77%29.92 "HgN/A
6:00 am55 °FClear.6 mph77%29.92 "Hg10 mi
5:30 am55 °FClear.No wind82%29.92 "Hg10 mi
5:00 am55 °FClear.3 mph82%29.89 "Hg10 mi
4:30 am57 °FClear.1 mph72%29.92 "Hg10 mi
4:00 am57 °FClear.2 mph72%29.89 "Hg10 mi
3:30 am57 °FLight rain. Clear.7 mph77%29.89 "HgN/A
3:00 am59 °FLight rain. Clear.9 mph63%29.89 "HgN/A
2:30 am55 °FLight rain. Clear.9 mph88%29.92 "HgN/A
2:00 am59 °FLight rain. Clear.14 mph68%29.92 "HgN/A
1:30 am63 °FLight rain. Clear.20 mph45%29.92 "HgN/A
1:00 am63 °FClear.17 mph45%29.92 "Hg10 mi
12:30 am63 °FClear.16 mph49%29.89 "Hg10 mi
12:00 am61 °FClear.9 mph52%29.92 "Hg10 mi
11:30 pm
Sun, Oct 13
59 °FClear.5 mph59%29.92 "Hg10 mi
11:00 pm61 °FClear.7 mph55%29.92 "Hg10 mi
10:30 pm61 °FClear.8 mph55%29.92 "Hg10 mi
10:00 pm59 °FClear.8 mph59%29.95 "Hg10 mi
9:30 pm61 °FClear.9 mph55%29.95 "Hg10 mi
9:00 pm61 °FClear.8 mph55%29.95 "Hg10 mi
8:30 pm64 °FClear.12 mph49%29.95 "Hg10 mi
8:00 pm64 °FClear.10 mph49%29.95 "Hg10 mi
7:30 pm66 °FSunny.15 mph43%29.95 "Hg10 mi
7:00 pm68 °FSunny.13 mph40%29.95 "Hg10 mi
6:30 pm70 °FSunny.16 mph35%29.95 "Hg10 mi
6:00 pm70 °FSunny.17 mph35%29.95 "Hg10 mi
5:30 pm72 °FSunny.20 mph33%29.95 "Hg10 mi
5:00 pm72 °FSunny.20 mph31%29.95 "Hg10 mi
Weather by CustomWeather, © 2019

See weather overview